Погода в Чирпах

Россия / Республика Татарстан     55°26′40″N   49°42′53″E
темп.,
°C
ветер,
м/с
пор.,
м/с
влажн.,
%
обл.,
%
осадки,
мм/ч
давл.,
гПа
погр.,
м
21 апреля, ср
ср2100:00+3юв61450100 0.0 1028361
03:00+2юв71553100 0.0 1027471
06:00+3юв81750100 0.0 1026705
09:00+5ююв91648100 0.3 1025870
12:00+4юв91651100 0.4 1025915
15:00+5ююв81552100 0.8 1024952
18:00+1ююв81897100 4.4 1023765
21:00+2ююв81696100 7.2 1023733
22 апреля, чт
чт2200:00+3ююв81594100 0.8 1022721
03:00+3ю71395100 1.0 1022560
06:00+3ю51096100 0.0 1023454
09:00+4ю51195100 0.1 1024459
12:00+6ю599098 0.0 1025543
15:00+8ю4880100 0.0 1024751
18:00+7ююв51187100 0.1 1025405
21:00+4ююв410945 0.1 1025244
23 апреля, пт
пт2300:00+4ююв4109586 0.1 1026335
03:00+2ююв369514 0.2 1026142
06:00+3ююв25924 0.0 1026161
09:00+8ю457813 0.0 1027445
12:00+11ю34651 0.0 1026753
15:00+13юв22545 0.0 10251091
18:00+10вюв377382 0.0 1025210
21:00+7в4782100 0.0 1024128
24 апреля, сб
сб2400:00+6в4889100 0.0 1022163
03:00+5всв4992100 0.0 1021240
06:00+6всв4889100 0.0 1019345
09:00+7в4587100 0.0 1018387
12:00+7в4589100 0.3 1016394
15:00+7в3489100 0.3 1015437
18:00+6вюв2494100 0.1 1014200
21:00+5юв2496100 0.1 1013168
25 апреля, вс
вс2500:00+5вюв379696 0.1 1011197
03:00+4юв4109590 0.1 1009241
06:00+5юв51097100 3.8 1007435
09:00+6зюз7128098 5.5 10091111
12:00+10зюз912465 0.1 10102081
15:00+11юз7104285 0.1 10112013
18:00+7ююз51166100 0.0 1012264
21:00+4юз4108499 0.2 1013205